Overview Statistics Trail Chart Weather Telemetry Raw packets
 

This is the latest recevied weather packets stored in our database for station/object WP3OF-2. If no packets are shown the sender has not sent any weather packets the latest 10 day(s).

<< 29 30 31 32 33 34 35 >>
Time Temp. Humidity Pressure Rain* Wind** Luminosity Snow
1788363385 25° C 90% 1027.9 hPa 0 mm - 1019 W/m² -
1788363080 24.44° C 89% 1027.9 hPa 0 mm - 955 W/m² -
1788362776 24.44° C 89% 1027.9 hPa 0 mm - 955 W/m² -
1788362471 25° C 88% 1027.9 hPa 0 mm - 255 W/m² -
1788362167 25° C 90% 1027.9 hPa 0 mm - 915 W/m² -
1788361867 25° C 91% 1027.9 hPa 0 mm - 911 W/m² -
1788361561 23.89° C 92% 1028.2 hPa 0 mm - 976 W/m² -
1788361257 23.89° C 89% 1028.2 hPa 0 mm - 344 W/m² -
1788360951 23.89° C 89% 1028.2 hPa 0 mm - 344 W/m² -
1788360651 24.44° C 88% 1028.2 hPa 0 mm - 883 W/m² -
1788360218 23.33° C 91% 1028.2 hPa 0 mm - 361 W/m² -
1788359913 23.33° C 91% 1028.2 hPa 0 mm - 361 W/m² -
1788359607 23.89° C 89% 1027.9 hPa 0 mm - 833 W/m² -
1788359304 23.89° C 92% 1028.2 hPa 0 mm - 895 W/m² -
1788359000 23.33° C 93% 1028.2 hPa 0 mm - 878 W/m² -
1788358694 23.33° C 93% 1027.9 hPa 0 mm - 883 W/m² -
1788358390 23.33° C 92% 1028.2 hPa 0 mm - 895 W/m² -
1788358084 24.44° C 91% 1028.2 hPa 0 mm - 911 W/m² -
1788357780 23.89° C 90% 1028.2 hPa 0 mm - 921 W/m² -
1788357478 23.89° C 92% 1028.2 hPa 0 mm - 876 W/m² -
1788357175 23.89° C 90% 1028.2 hPa 0 mm - 824 W/m² -
1788356874 23.89° C 89% 1028.2 hPa 0 mm - 811 W/m² -
1788356570 23.89° C 88% 1028.2 hPa 0 mm - 785 W/m² -
1788356265 23.89° C 88% 1028.2 hPa 0 mm - 756 W/m² -
1788355987 23.89° C 87% 1028.2 hPa 0 mm - 718 W/m² -

* Rain latest hour (hover to see other rain measurements)
** Current wind speed in m/s (hover to see current wind gust speed)